[[{"header":{"parameterUnit":"m.s-1","parameterCategory":1,"la1":30.2991,"la2":30.254,"lo1":-89.0895,"lo2":-89.0444,"dy":0.0017,"dx":0.0017,"nx":28,"ny":28,"refTime":"2025-03-20T21:00:00:Z","depth":0,"parameterNumber":2,"parameterNumberName":"U-component_of_WINDS"},"data":[0,0,0,0,0,0,0,0,0,0,0,0,0,0,0,0,0,0,0,0,0,0,0,0,0,0,0,0,0,0,0,0,0,0,0,0,0,0,0,0,0,0,0,0,0,0,0,0,0,0,0,0,0,0,0,0,0,0,5.1838,5.1839,0,5.1902,5.1903,5.1903,5.1867,5.1865,5.1863,5.1862,5.1926,5.1929,5.1933,0,0,0,0,0,0,0,0,0,0,0,0,0,5.1684,5.1687,5.1838,5.1839,5.1839,5.1902,5.1903,5.1904,5.1867,5.1865,5.1863,5.1861,5.1925,5.1929,5.1933,0,0,0,0,0,0,0,0,0,0,0,0,0,5.175,5.1688,5.1838,5.1829,5.1829,5.1902,5.1903,5.1904,5.1868,5.1865,5.1862,5.186,5.1924,5.1929,5.1934,5.2019,0,0,5.1949,5.1951,0,0,0,0,0,0,0,0,5.1746,5.1756,5.1829,5.183,5.183,5.1874,5.1872,5.1942,5.1868,5.1853,5.1862,5.1859,5.1911,5.1917,5.1935,5.2022,5.2024,5.195,5.1953,5.1955,5.1956,0,0,0,0,0,0,0,5.1742,5.1753,5.1863,5.183,5.1831,5.1822,5.1828,5.1885,5.1896,5.1854,5.1852,5.186,5.191,5.193,5.1936,5.2025,5.1949,5.1954,5.1957,5.1959,5.2188,5.2191,0,0,0,0,0,0,5.1738,5.1749,5.1861,5.1865,5.1781,5.1827,5.1834,5.1862,5.1895,5.1898,5.1862,5.1858,5.1922,5.193,5.1938,5.2041,5.1955,5.196,5.1962,5.2185,5.2189,5.2192,0,0,0,0,0,0,5.1735,5.1748,5.1858,5.1807,5.182,5.1832,5.1864,5.1865,5.1884,5.1901,5.1903,5.188,5.1921,5.1931,5.2,5.2043,5.1962,5.1966,5.2182,5.2186,5.2191,5.2248,0,0,0,0,0,0,5.1731,5.1747,5.1779,5.1808,5.1823,5.1919,5.1867,5.1868,5.1893,5.1889,5.1919,5.1921,5.1919,5.1992,5.2005,5.2048,5.197,5.2178,5.2184,5.2189,5.2242,5.2254,5.2264,0,0,0,0,0,5.1725,5.1792,5.1781,5.1795,5.1863,5.1921,5.193,5.1927,5.1897,5.193,5.1941,5.192,5.2036,5.2,5.2013,5.2059,5.2175,5.2182,5.2189,5.2237,5.2251,5.2263,0,0,0,0,0,0,5.1767,5.1795,5.1784,5.1861,5.189,5.1915,5.1956,5.1942,5.1979,5.1972,5.1967,5.1974,5.2046,5.206,5.2018,5.2145,5.2101,5.2111,5.2133,5.2147,5.2157,5.2153,5.1975,0,0,0,0,0,5.1786,5.1831,5.1853,5.1919,5.1934,5.1943,5.1968,5.1964,5.1992,5.2004,5.202,5.2048,5.2092,5.212,5.216,5.2244,5.2251,5.2283,5.2294,5.2302,5.2311,5.2358,5.2373,5.2215,5.2215,5.2215,0,0,5.1824,5.1845,5.1873,5.1929,5.195,5.1997,5.1953,5.2004,5.2039,5.2011,5.2078,5.2091,5.2123,5.22,5.2235,5.2213,5.2357,5.2311,5.2318,5.2322,5.2367,5.2382,5.2395,5.2219,5.2219,5.2218,0,0,5.1918,5.1938,5.1997,5.202,5.2053,5.2059,5.2073,5.2102,5.211,5.2177,5.2157,5.2199,5.2273,5.2297,5.2319,5.2426,5.2409,5.2439,5.2496,5.2542,5.2555,5.2566,5.2605,5.2619,5.2448,5.2448,5.2448,0,5.1961,5.2031,5.2028,5.2082,5.2108,5.2086,5.2146,5.2168,5.2213,5.2231,5.2207,5.2302,5.2321,5.2405,5.2431,5.2449,5.2466,5.2435,5.2553,5.2564,5.2574,5.2612,5.2627,5.2452,5.2451,5.2451,5.2451,0,5.2084,5.2133,5.2176,5.2222,5.2252,5.2309,5.2315,5.2346,5.2341,5.2349,5.2419,5.2442,5.2488,5.2508,5.2501,5.2592,5.2577,5.2553,5.2509,5.2593,5.2628,5.2643,5.2457,5.2456,5.2455,5.2454,0,0,5.2203,5.2249,5.2265,5.2286,5.2323,5.2361,5.2418,5.2464,5.2491,5.2524,5.2571,5.2636,5.2615,5.264,5.2637,5.2678,5.2763,5.2649,5.265,5.267,5.2865,5.2883,5.29,5.2752,5.2755,5.2757,5.2863,0,5.23,5.2399,5.24,5.2491,5.2538,5.252,5.257,5.2598,5.2609,5.265,5.2661,5.2708,5.2676,5.2691,5.2731,5.2744,5.2802,5.2737,5.2797,5.2799,5.279,5.2918,5.2937,5.3035,5.2877,5.2879,5.2881,0,5.2426,5.2464,5.2561,5.2593,5.2613,5.2657,5.2701,5.2741,5.2773,5.2778,5.2808,5.28,5.2858,5.2813,5.2895,5.2851,5.2876,5.2887,5.289,5.2896,5.2845,5.2927,5.3067,5.3082,5.2902,5.29,5.2899,0,5.2505,5.2581,5.2649,5.2668,5.2707,5.2739,5.2757,5.2787,5.2815,5.2854,5.2872,5.2917,5.2941,5.2976,5.2981,5.2947,5.3063,5.3018,5.307,5.307,5.3094,5.3093,5.324,5.311,5.311,5.311,5.311,0,5.2614,5.2674,5.2686,5.2727,5.2795,5.2796,5.2862,5.2878,5.2905,5.295,5.2937,5.298,5.2983,5.3027,5.3031,5.3099,5.311,5.3116,5.3116,5.3117,5.3117,5.3133,5.3127,5.3114,5.3113,5.3112,5.3111,0,5.2713,5.2723,5.2797,5.2829,5.2838,5.2887,5.2914,5.2955,5.2965,5.3023,5.3036,5.3053,5.3104,5.3113,5.3173,5.3175,5.3257,5.325,5.3247,5.3246,5.3297,5.3292,5.346,5.3483,5.3338,5.334,5.3341,0,5.2781,5.2828,5.2865,5.2895,5.2915,5.2963,5.2993,5.2996,5.3028,5.307,5.3106,5.3157,5.3197,5.3281,5.3298,5.3345,5.3339,5.3395,5.3346,5.3347,5.3341,5.3339,5.3344,5.3404,5.3406,5.3407,5.3408,0,5.2902,5.2906,5.2949,5.2996,5.3032,5.3068,5.3103,5.3128,5.3136,5.3172,5.3226,5.3257,5.332,5.3371,5.3418,5.3437,5.3425,5.3424,5.3438,5.344,5.3436,5.344,5.3273,5.342,5.3419,5.3418,5.3417,5.3417,5.2989,5.303,5.3064,5.3113,5.314,5.3173,5.3214,5.323,5.3275,5.3327,5.3326,5.3385,5.3419,5.3481,5.3503,5.355,5.3532,5.3553,5.3558,5.3563,5.3569,5.3429,5.3559,5.3558,5.3558,5.3558,5.3557,0,5.311,5.3131,5.3177,5.3227,5.3266,5.3252,5.329,5.3324,5.3377,5.341,5.3451,5.3513,5.3563,5.3586,5.3636,5.3669,5.3665,5.3682,5.3679,5.3684,5.3581,5.3564,5.3685,5.3685,5.3685,5.3685,5.3684,5.3684,5.3177,5.3247,5.3255,5.3338,5.3359,5.3417,5.3441,5.3472,5.3498,5.3569,5.3611,5.3626,5.3655,5.3707,5.3753,5.3758,5.3778,5.3798,5.3801,5.3704,5.3691,5.3679,5.3663,5.3802,5.3802,5.39,5.39,5.3901]},{"header":{"parameterUnit":"m.s-1","parameterCategory":1,"la1":30.2991,"la2":30.254,"lo1":-89.0895,"lo2":-89.0444,"dy":0.0017,"dx":0.0017,"nx":28,"ny":28,"refTime":"2025-03-20T21:00:00:Z","depth":0,"parameterNumber":3,"parameterNumberName":"V-component_of_WINDS"},"data":[0,0,0,0,0,0,0,0,0,0,0,0,0,0,0,0,0,0,0,0,0,0,0,0,0,0,0,0,0,0,0,0,0,0,0,0,0,0,0,0,0,0,0,0,0,0,0,0,0,0,0,0,0,0,0,0,0,0,-6.7425,-6.7426,0,-6.7535,-6.7536,-6.7537,-6.7534,-6.7533,-6.7531,-6.753,-6.7637,-6.7641,-6.7645,0,0,0,0,0,0,0,0,0,0,0,0,0,-6.721,-6.7214,-6.7425,-6.7426,-6.7428,-6.7535,-6.7536,-6.7538,-6.7534,-6.7533,-6.7531,-6.7529,-6.7636,-6.7641,-6.7646,0,0,0,0,0,0,0,0,0,0,0,0,0,-6.731,-6.7215,-6.7425,-6.7439,-6.7442,-6.7534,-6.7536,-6.7538,-6.7535,-6.7533,-6.753,-6.7528,-6.7634,-6.764,-6.7646,-6.773,0,0,-6.7666,-6.7669,0,0,0,0,0,0,0,0,-6.7304,-6.7318,-6.7436,-6.7438,-6.7441,-6.7519,-6.75,-6.7602,-6.7535,-6.7499,-6.753,-6.7527,-6.7599,-6.7608,-6.7634,-6.7735,-6.774,-6.7666,-6.767,-6.7673,-6.7675,0,0,0,0,0,0,0,-6.7297,-6.7313,-6.7468,-6.7437,-6.7441,-6.7439,-6.7451,-6.7519,-6.756,-6.7502,-6.7502,-6.7516,-6.76,-6.7627,-6.7636,-6.7742,-6.7666,-6.7672,-6.7676,-6.7678,-6.792,-6.7923,0,0,0,0,0,0,-6.7288,-6.7307,-6.7465,-6.7472,-6.7366,-6.7445,-6.7458,-6.7496,-6.756,-6.7567,-6.7517,-6.7515,-6.7618,-6.7629,-6.764,-6.7744,-6.7673,-6.7679,-6.7683,-6.7918,-6.7921,-6.7924,0,0,0,0,0,0,-6.7283,-6.7302,-6.746,-6.739,-6.741,-6.7451,-6.7494,-6.7499,-6.7527,-6.7571,-6.7578,-6.7538,-6.7616,-6.7631,-6.7709,-6.7747,-6.7682,-6.7688,-6.7915,-6.7919,-6.7922,-6.7952,0,0,0,0,0,0,-6.7277,-6.73,-6.7333,-6.739,-6.7413,-6.7529,-6.7496,-6.7503,-6.7538,-6.7536,-6.7592,-6.7599,-6.7616,-6.7699,-6.7715,-6.7755,-6.7693,-6.7911,-6.7917,-6.7921,-6.7947,-6.7956,-6.7963,0,0,0,0,0,-6.7269,-6.7335,-6.7335,-6.7354,-6.7456,-6.7531,-6.7544,-6.7563,-6.7541,-6.7574,-6.7604,-6.7597,-6.7741,-6.7707,-6.7725,-6.7767,-6.7909,-6.7915,-6.7921,-6.7944,-6.7954,-6.7963,0,0,0,0,0,0,-6.7278,-6.7343,-6.7343,-6.7429,-6.7475,-6.753,-6.7572,-6.7573,-6.7624,-6.762,-6.764,-6.7653,-6.7731,-6.7757,-6.7719,-6.7853,-6.7822,-6.7832,-6.7833,-6.7844,-6.7852,-6.7844,-6.7698,0,0,0,0,0,-6.7291,-6.7348,-6.7401,-6.7472,-6.7495,-6.753,-6.7563,-6.7575,-6.7622,-6.764,-6.7675,-6.772,-6.7775,-6.7811,-6.7864,-6.7951,-6.7964,-6.7989,-6.7997,-6.8004,-6.8012,-6.8062,-6.8074,-6.7943,-6.7943,-6.7943,0,0,-6.7316,-6.7359,-6.7393,-6.7475,-6.7511,-6.757,-6.7546,-6.7607,-6.7651,-6.7649,-6.7726,-6.7753,-6.7804,-6.7888,-6.7926,-6.7912,-6.8051,-6.8011,-6.8016,-6.8021,-6.8069,-6.8081,-6.8092,-6.7947,-6.7946,-6.7946,0,0,-6.7393,-6.743,-6.7495,-6.7533,-6.759,-6.7613,-6.7629,-6.7685,-6.7704,-6.7782,-6.7783,-6.7834,-6.7928,-6.7966,-6.7997,-6.8091,-6.8088,-6.8108,-6.815,-6.8198,-6.8208,-6.8218,-6.8252,-6.8264,-6.8116,-6.8116,-6.8116,0,-6.7417,-6.7506,-6.7527,-6.7591,-6.7627,-6.7632,-6.7697,-6.7732,-6.7803,-6.7828,-6.7811,-6.7932,-6.7967,-6.806,-6.8084,-6.8109,-6.8127,-6.8101,-6.8205,-6.8215,-6.8224,-6.8257,-6.827,-6.8118,-6.8118,-6.8118,-6.8117,0,-6.7533,-6.7595,-6.764,-6.7711,-6.7753,-6.7816,-6.7848,-6.7887,-6.7896,-6.7921,-6.8001,-6.8043,-6.8106,-6.8129,-6.8137,-6.8224,-6.8214,-6.8201,-6.817,-6.8238,-6.827,-6.8282,-6.8121,-6.812,-6.812,-6.8119,0,0,-6.7616,-6.7701,-6.7717,-6.7751,-6.7815,-6.7863,-6.7927,-6.7992,-6.8025,-6.8074,-6.8129,-6.8211,-6.8201,-6.8236,-6.8249,-6.8291,-6.8365,-6.8273,-6.8275,-6.8289,-6.8466,-6.8475,-6.8489,-6.8364,-6.8366,-6.8368,-6.8461,0,-6.7699,-6.7816,-6.7839,-6.794,-6.7998,-6.8005,-6.8061,-6.8107,-6.8132,-6.8185,-6.8212,-6.8271,-6.8252,-6.8274,-6.8317,-6.8347,-6.84,-6.834,-6.8414,-6.8417,-6.8401,-6.8505,-6.8515,-6.8601,-6.8474,-6.8476,-6.8477,0,-6.7812,-6.7867,-6.7975,-6.8034,-6.8059,-6.811,-6.8172,-6.8222,-6.8274,-6.829,-6.8332,-6.834,-6.8407,-6.8374,-6.8467,-6.8426,-6.8458,-6.8478,-6.8482,-6.8489,-6.8451,-6.8516,-6.8628,-6.8641,-6.8497,-6.8495,-6.8494,0,-6.7863,-6.7964,-6.8042,-6.807,-6.8141,-6.8177,-6.8208,-6.8258,-6.8296,-6.8349,-6.8374,-6.8434,-6.8467,-6.8513,-6.8538,-6.8511,-6.863,-6.8598,-6.8645,-6.8644,-6.8668,-6.8666,-6.8788,-6.8689,-6.8689,-6.8688,-6.8688,0,-6.7954,-6.8019,-6.8066,-6.8114,-6.8188,-6.8214,-6.8286,-6.8317,-6.8362,-6.8416,-6.8424,-6.8474,-6.8503,-6.8558,-6.8577,-6.8652,-6.8666,-6.8681,-6.8685,-6.868,-6.8678,-6.8701,-6.8695,-6.8692,-6.8691,-6.8691,-6.869,0,-6.8022,-6.8056,-6.8142,-6.8204,-6.8221,-6.8273,-6.8325,-6.8372,-6.8399,-6.8467,-6.8484,-6.8526,-6.8591,-6.862,-6.8699,-6.8712,-6.8798,-6.8797,-6.8781,-6.8782,-6.8827,-6.8823,-6.8967,-6.8988,-6.8875,-6.8876,-6.8877,0,-6.8078,-6.8129,-6.8197,-6.8235,-6.8268,-6.8328,-6.8368,-6.8396,-6.8437,-6.8502,-6.8541,-6.8607,-6.866,-6.8763,-6.88,-6.8861,-6.8862,-6.8909,-6.8871,-6.8866,-6.8864,-6.8861,-6.8866,-6.8915,-6.8916,-6.8917,-6.8918,0,-6.8173,-6.8189,-6.8246,-6.8311,-6.8359,-6.8411,-6.8462,-6.8492,-6.8528,-6.8573,-6.8641,-6.8683,-6.8766,-6.8831,-6.8895,-6.8925,-6.8928,-6.893,-6.8944,-6.8939,-6.8928,-6.8936,-6.8799,-6.8926,-6.8925,-6.8925,-6.8924,-6.8924,-6.8238,-6.8284,-6.8341,-6.8406,-6.8448,-6.8495,-6.8543,-6.8578,-6.8635,-6.8706,-6.8719,-6.8791,-6.8844,-6.8931,-6.8964,-6.902,-6.9009,-6.9029,-6.9034,-6.9039,-6.9042,-6.892,-6.9032,-6.9032,-6.9032,-6.9031,-6.9031,0,-6.8334,-6.8372,-6.8431,-6.8504,-6.8555,-6.8556,-6.8613,-6.8655,-6.8719,-6.8769,-6.8823,-6.8902,-6.8966,-6.9009,-6.9073,-6.911,-6.9113,-6.9126,-6.9124,-6.9131,-6.9048,-6.903,-6.9123,-6.9123,-6.9123,-6.9123,-6.9123,-6.9123,-6.8391,-6.847,-6.8493,-6.8594,-6.863,-6.8703,-6.8736,-6.878,-6.882,-6.8908,-6.8963,-6.8991,-6.9039,-6.9108,-6.9166,-6.9177,-6.9201,-6.9214,-6.9225,-6.9146,-6.9137,-6.9127,-6.911,-6.9219,-6.9219,-6.9304,-6.9304,-6.9305]}]]